Location: ??????
(38.0131°N, 23.7723°E)
Time: 05:18:01
(UTC+00:00)

Cosmos 1758 - Pass Details

Date: 17 October 2021
Orbit: 539 x 560 km, 82.5° (Epoch: 28 November)

Event Time Altitude Azimuth Distance (km) Brightness Sun altitude
Rises 16:19:34 0° 192° (SSW) 2,704 7.1 -7.7°
Reaches altitude 10° 16:21:44 10° 195° (SSW) 1,812 6.3 -8.1°
Maximum altitude 16:25:42 65° 278° (W) 601 3.8 -8.9°
Drops below altitude 10° 16:29:40 10° 1° (N) 1,815 5.9 -9.7°
Sets 16:31:50 0° 4° (N) 2,710 6.8 -10.1°
